Regional Weather Roundup
Issued by NWS Kansas City/Pleasant Hill, MO

Home | Current Version | Previous Version | Graphics & Text | Print | Product List | Glossary Off
Versions: 1 2 3 4 5 6 7 8 9 10 11 12 13 14 15 16 17 18 19 20 21 22 23 24 25 26 27 28 29 30 31 32 33 34 35 36 37 38 39 40 41 42 43 44 45 46 47 48 49

000
ASUS43 KEAX 090310
RWREAX

WEATHER ROUNDUP FOR EASTERN KANSAS AND NORTHWEST MISSOURI
NATIONAL WEATHER SERVICE KANSAS CITY/PLEASANT HILL MO
900 PM CST MON FEB 08 2016

KSZ040-057-103>105-MOZ028-029-037-043-090400-
...KANSAS CITY METROPOLITAN AREA...

CITY           SKY/WX    TMP DP  RH WIND       PRES   REMARKS
K.C. INTL      MOCLDY    27  17  66 NW12      30.08F WCI  17
K.C. DOWNTOWN  PTCLDY    30  16  56 N10G20    30.10S WCI  21
LEES SUMMIT    PTCLDY    28  15  58 NW13      30.08S WCI  17
OLATHE - IXD   MOCLDY    29  17  61 NW9       30.11S WCI  20
OLATHE - OJC   PTCLDY    28  15  58 NW15      30.09S WCI  16
LAWRENCE       CLOUDY    31  17  56 NW15      30.12F WCI  20

$$

MOZ001>008-011>017-020>025-030>033-038>040-044>046-053-054-090400-
...NORTHERN AND CENTRAL MISSOURI...

CITY           SKY/WX    TMP DP  RH WIND       PRES   REMARKS
ST. JOSEPH     PTCLDY    27  17  66 N10       30.10F WCI  17
MOSBY          CLEAR     28  18  64 NW13      30.08F WCI  18
WARRENSBURG    MOCLDY    28  18  64 NW10G18   30.07S WCI  19
WHITEMAN AFB   CLOUDY    27  16  64 NW17G23   30.04F WCI  14
CLINTON          N/A     30  19  64 NW7       30.07F WCI  23
SEDALIA        CLOUDY    28  16  60 NW18G26   30.04F WCI  15
WARSAW         NOT AVBL
CHILLICOTHE      N/A     25  16  68 NW13G24   30.05F WCI  14
KIRKSVILLE     FLURRIES  20  11  68 NW15      29.98F WCI   6

$$

MOZ041-047>049-056>058-063>065-088>090-097-090400-
...EASTERN AND SOUTHERN MISSOURI...

CITY           SKY/WX    TMP DP  RH WIND       PRES   REMARKS
ST. LOUIS INTL FLURRIES  24  13  62 NW14G25   29.95S WCI  12
SPIRIT OF STL  CLOUDY    24  13  62 NW17      29.96S WCI  11
COLUMBIA       CLOUDY    23  13  65 NW22G31   29.99F WCI   8
JEFFERSON CITY FLURRIES  24  16  71 NW15      30.02F WCI  11
ROLLA          CLOUDY    23  15  71 W15G25    29.95F WCI  10
OSAGE BEACH    CLOUDY    27  12  54 NW13G21   30.02F WCI  16
SPRINGFIELD    PTCLDY    30  13  49 NW16G26   30.03S WCI  19
BRANSON        CLEAR     32  14  47 NW17G25   30.04F WCI  21
JOPLIN         CLEAR     31  15  52 NW13      30.12F WCI  21
WEST PLAINS    FLURRIES  28  19  69 NW15G26   29.99S WCI  16

$$

IAZ060-094-KSZ022-034>040-054-083-096-NEZ052-066-093-090400-
...KANSAS...SOUTHEAST NEBRASKA AND IOWA...

CITY           SKY/WX    TMP DP  RH WIND       PRES   REMARKS
TOPEKA         CLOUDY    32  17  54 W6        30.13R WCI  26
MANHATTAN      CLOUDY    35  19  52 NW7       30.17S WCI  29
EMPORIA        MOCLDY    33  17  51 NW12      30.15S WCI  24
CHANUTE        PTCLDY    33  16  49 NW10      30.15R WCI  25
WICHITA        PTCLDY    34  19  54 NW16      30.21S WCI  24
OMAHA          CLOUDY    24  18  77 N6        30.10S WCI  17
LINCOLN        CLOUDY    32  21  64 NW16      30.13F WCI  21
FALLS CITY     CLOUDY    28  20  71 NW12      30.10F WCI  18
LAMONI         MOCLDY    19  10  68 NW18G26   30.01S WCI   4
DES MOINES     FLURRIES  19   9  65 NW22G33   30.00S WCI   2

$$




USA.gov is the U.S. government's official web portal to all federal, state and local government web resources and services.